VA3PPY Weather Reports


time (UTC)temp
C
wind
direction
speed
KPH
gust
KPH
rain 1hr
cm
rain 24hr
cm
rain mn
cm
humidity
%
barometer
mb
20260903124514 20 146 0.0 6.4 0.00 0.79 0.03 97 1012.9
20260903123028 20 146 0.0 0.0 0.00 0.79 0.03 97 1012.8
20260903121515 19 146 0.0 1.6 0.00 0.79 0.03 97 1012.6
20260903120015 19 146 0.0 0.0 0.00 0.79 0.03 97 1012.6
20260903114515 18 146 0.0 0.0 0.00 0.79 0.03 97 1012.5
20260903113022 18 146 0.0 0.0 0.00 0.79 0.03 97 1012.4
20260903111515 18 146 0.0 4.8 0.00 0.79 0.03 97 1012.3
20260903110015 18 146 0.0 0.0 0.00 0.79 0.03 97 1012.2
20260903104515 18 146 0.0 1.6 0.00 0.79 0.03 97 1012.1
20260903103015 18 146 0.0 0.0 0.00 0.79 0.03 97 1012.0
20260903101516 18 146 0.0 0.0 0.00 0.79 0.03 97 1011.9
20260903100023 18 146 0.0 0.0 0.00 0.79 0.03 97 1011.8
20260903094515 18 146 0.0 0.0 0.00 0.79 0.03 97 1011.7
20260903093037 18 146 0.0 0.0 0.00 0.79 0.03 97 1011.6
20260903091516 18 146 0.0 0.0 0.00 0.79 0.03 97 1011.5
20260903090021 18 146 0.0 0.0 0.00 0.79 0.03 97 1011.4
20260903084527 18 146 0.0 0.0 0.00 0.79 0.03 97 1011.3
20260903083016 18 146 0.0 0.0 0.00 0.79 0.03 97 1011.3
20260903081516 19 146 0.0 0.0 0.00 0.79 0.03 97 1011.1
20260903080016 19 146 0.0 0.0 0.00 0.79 0.03 97 1011.2
20260903074516 19 146 0.0 0.0 0.00 0.79 0.03 97 1011.2
20260903073016 19 146 0.0 0.0 0.00 0.79 0.03 97 1011.1
20260903071519 19 146 0.0 0.0 0.00 0.79 0.03 97 1010.9
20260903070020 19 146 0.0 0.0 0.00 0.79 0.03 97 1010.9
20260903064516 20 146 0.0 0.0 0.00 0.79 0.03 97 1011.0
20260903063016 20 146 0.0 0.0 0.03 0.79 0.03 97 1011.2
20260903061517 20 146 0.0 3.2 0.03 0.79 0.03 97 1011.3
20260903060016 20 146 0.0 3.2 0.03 0.79 0.03 96 1011.4
20260903054522 20 146 0.0 4.8 0.03 0.79 0.03 97 1011.6
20260903053016 20 146 0.0 3.2 0.00 0.76 0.00 97 1011.7
20260903051517 20 146 0.0 1.6 0.00 0.76 0.00 97 1011.6
20260903050016 20 146 0.0 1.6 0.00 0.76 0.00 97 1011.2
20260903044516 20 146 0.0 4.8 0.00 0.76 0.00 97 1011.0
20260903043017 20 142 1.6 6.4 0.00 0.76 0.00 96 1011.0
20260903041518 20 142 0.0 4.8 0.00 0.76 0.00 96 1010.6
20260903040017 20 142 0.0 0.0 0.00 0.76 0.00 96 1010.2
20260903034517 20 142 0.0 0.0 0.00 0.76 0.76 96 1010.3
20260903033029 20 142 0.0 0.0 0.00 0.76 0.76 96 1010.5
20260903031518 20 142 0.0 0.0 0.00 0.76 0.76 96 1010.0
20260903030018 20 142 0.0 0.0 0.00 0.76 0.76 96 1009.8
20260903024517 20 142 0.0 4.8 0.00 0.76 0.76 96 1010.5
20260903023019 21 142 0.0 4.8 0.00 0.76 0.76 96 1010.8
20260903021525 21 129 0.0 12.9 0.08 0.76 0.76 96 1010.8
20260903020017 21 151 1.6 4.8 0.08 0.76 0.76 96 1011.1
20260903014517 21 151 0.0 3.2 0.10 0.76 0.76 96 1010.9
20260903013017 21 151 0.0 11.3 0.38 0.71 0.71 96 1011.3
20260903011517 20 302 0.0 3.2 0.33 0.69 0.69 96 1010.7
20260903010017 21 302 0.0 1.6 0.33 0.69 0.69 95 1010.8
20260903004522 21 302 1.6 4.8 0.25 0.61 0.61 95 1010.8
20260903003018 21 302 0.0 0.0 0.00 0.36 0.36 95 1010.8
20260903001520 21 302 0.0 0.0 0.00 0.36 0.36 95 1010.5
20260903000018 21 302 0.0 0.0 0.03 0.36 0.36 95 1010.2
20260902234517 21 302 0.0 0.0 0.05 0.36 0.36 95 1010.2
20260902233018 21 302 0.0 0.0 0.05 0.36 0.36 94 1010.9
20260902231519 21 302 0.0 3.2 0.05 0.36 0.36 94 1011.0
20260902230018 21 302 0.0 6.4 0.03 0.33 0.33 94 1010.5
20260902224518 21 34 0.0 1.6 0.00 0.30 0.30 93 1011.1
20260902223019 21 34 0.0 0.0 0.00 0.30 0.30 93 1010.7
20260902221519 21 34 0.0 3.2 0.30 0.30 0.30 93 1010.0
20260902220018 21 34 0.0 1.6 0.30 0.30 0.30 93 1010.3
20260902214526 20 34 0.0 4.8 0.30 0.30 0.30 92 1010.7
20260902213018 20 359 0.0 11.3 0.30 0.30 0.30 89 1009.8
20260902211519 21 309 4.8 20.9 0.00 0.00 0.00 86 1010.7
20260902210031 22 84 9.7 51.5 0.00 0.00 0.00 75 1010.6
20260902204519 31 133 0.0 1.6 0.00 0.00 0.00 71 1009.9
20260902203018 32 159 3.2 19.3 0.00 0.00 0.00 65 1009.1
20260902201550 32 355 1.6 8.0 0.00 0.00 0.00 66 1009.4
20260902200051 32 171 0.0 4.8 0.00 0.00 0.00 67 1009.5
20260902194551 32 136 1.6 9.7 0.00 0.00 0.00 70 1009.7
20260902193051 31 129 3.2 12.9 0.00 0.00 0.00 70 1010.0
20260902191555 32 297 1.6 9.7 0.00 0.00 0.00 72 1010.2
20260902190055 32 167 3.2 12.9 0.00 0.00 0.00 71 1010.2
20260902184609 31 193 1.6 8.0 0.00 0.00 0.00 72 1010.3
20260902183100 30 290 0.0 6.4 0.00 0.00 0.00 73 1010.4
20260902181551 30 290 1.6 4.8 0.00 0.00 0.00 73 1010.5
20260902180051 30 290 0.0 4.8 0.00 0.00 0.00 74 1010.6
20260902174551 30 290 0.0 4.8 0.00 0.00 0.00 73 1011.0
20260902173051 30 290 0.0 6.4 0.00 0.00 0.00 73 1011.5
20260902171551 30 290 0.0 4.8 0.00 0.00 0.00 74 1011.9
20260902170053 27 290 1.6 4.8 0.00 0.00 0.00 78 1012.3
20260902164551 27 274 1.6 4.8 0.00 0.00 0.00 78 1012.6
20260902163058 29 274 0.0 4.8 0.00 0.00 0.00 73 1012.2
20260902161551 29 158 0.0 6.4 0.00 0.00 0.00 74 1012.4
20260902160054 28 154 0.0 6.4 0.00 0.00 0.00 78 1012.3
20260902154551 28 240 0.0 3.2 0.00 0.00 0.00 80 1012.3
20260902153052 28 240 0.0 3.2 0.00 0.00 0.00 80 1012.3
20260902151600 28 290 0.0 6.4 0.00 0.00 0.00 81 1012.1
20260902150052 28 131 0.0 9.7 0.00 0.00 0.00 82 1011.9
20260902144551 27 143 1.6 8.0 0.00 0.00 0.00 85 1012.1
20260902143056 27 163 0.0 6.4 0.00 0.00 0.00 87 1012.2
20260902141551 26 155 0.0 12.9 0.00 0.00 0.00 89 1012.2
20260902140052 26 142 1.6 6.4 0.00 0.00 0.00 90 1012.2
20260902134604 25 164 0.0 9.7 0.00 0.00 0.00 92 1012.1
20260902133056 25 162 1.6 6.4 0.00 0.00 0.00 92 1012.1
20260902131552 25 162 0.0 4.8 0.00 0.00 0.00 93 1012.0
20260902130057 24 162 1.6 6.4 0.00 0.00 0.00 93 1012.1